Year,Month,Day,Hour,Minute,Value (Times are PST for temperature in C)
2008,06,17,00,00,15.00
2008,06,17,00,01,15.00
2008,06,17,00,02,15.00
2008,06,17,00,03,15.00
2008,06,17,00,04,14.90
2008,06,17,00,05,14.80
2008,06,17,00,06,14.80
2008,06,17,00,07,14.70
2008,06,17,00,08,14.70
2008,06,17,00,09,14.60
2008,06,17,00,10,14.50
2008,06,17,00,11,14.50
2008,06,17,00,12,14.40
2008,06,17,00,13,14.30
2008,06,17,00,14,14.30
2008,06,17,00,15,14.20
2008,06,17,00,16,14.10
2008,06,17,00,17,14.10
2008,06,17,00,18,14.00
2008,06,17,00,19,14.00
2008,06,17,00,20,13.90
2008,06,17,00,21,13.90
2008,06,17,00,22,13.80
2008,06,17,00,23,13.80
2008,06,17,00,24,13.80
2008,06,17,00,25,13.70
2008,06,17,00,26,13.70
2008,06,17,00,27,13.60
2008,06,17,00,28,13.60
2008,06,17,00,29,13.50
2008,06,17,00,30,13.50
2008,06,17,00,31,13.40
2008,06,17,00,32,13.40
2008,06,17,00,33,13.30
2008,06,17,00,34,13.30
2008,06,17,00,35,13.30
2008,06,17,00,36,13.20
2008,06,17,00,37,13.20
2008,06,17,00,38,13.20
2008,06,17,00,39,13.10
2008,06,17,00,40,13.10
2008,06,17,00,41,13.00
2008,06,17,00,42,12.90
2008,06,17,00,43,12.90
2008,06,17,00,44,12.80
2008,06,17,00,45,12.80
2008,06,17,00,46,12.80
2008,06,17,00,47,12.70
2008,06,17,00,48,12.70
2008,06,17,00,49,12.60
2008,06,17,00,50,12.60
2008,06,17,00,51,12.50
2008,06,17,00,52,12.50
2008,06,17,00,53,12.50
2008,06,17,00,54,12.40
2008,06,17,00,55,12.40
2008,06,17,00,56,12.40
2008,06,17,00,57,12.30
2008,06,17,00,58,12.30
2008,06,17,00,59,12.30
2008,06,17,01,00,12.20
2008,06,17,01,01,12.20
2008,06,17,01,02,12.20
2008,06,17,01,03,12.20
2008,06,17,01,04,12.10
2008,06,17,01,05,12.10
2008,06,17,01,06,12.10
2008,06,17,01,07,12.10
2008,06,17,01,08,12.10
2008,06,17,01,09,12.10
2008,06,17,01,10,12.10
2008,06,17,01,11,12.00
2008,06,17,01,12,12.00
2008,06,17,01,13,12.00
2008,06,17,01,14,12.00
2008,06,17,01,15,12.00
2008,06,17,01,16,11.90
2008,06,17,01,17,11.90
2008,06,17,01,18,11.90
2008,06,17,01,19,11.90
2008,06,17,01,20,11.90
2008,06,17,01,21,11.90
2008,06,17,01,22,12.00
2008,06,17,01,23,12.00
2008,06,17,01,24,12.00
2008,06,17,01,25,12.00
2008,06,17,01,26,12.00
2008,06,17,01,27,11.90
2008,06,17,01,28,11.90
2008,06,17,01,29,11.90
2008,06,17,01,30,12.00
2008,06,17,01,31,11.90
2008,06,17,01,32,12.00
2008,06,17,01,33,12.00
2008,06,17,01,34,11.90
2008,06,17,01,35,11.90
2008,06,17,01,36,11.90
2008,06,17,01,37,11.90
2008,06,17,01,38,11.90
2008,06,17,01,39,11.90
2008,06,17,01,40,11.90
2008,06,17,01,41,11.90
2008,06,17,01,42,11.90
2008,06,17,01,43,11.90
2008,06,17,01,44,11.80
2008,06,17,01,45,11.80
2008,06,17,01,46,11.80
2008,06,17,01,47,11.80
2008,06,17,01,48,11.80
2008,06,17,01,49,11.70
2008,06,17,01,50,11.70
2008,06,17,01,51,11.70
2008,06,17,01,52,11.60
2008,06,17,01,53,11.60
2008,06,17,01,54,11.50
2008,06,17,01,55,11.50
2008,06,17,01,56,11.40
2008,06,17,01,57,11.40
2008,06,17,01,58,11.30
2008,06,17,01,59,11.30
2008,06,17,02,00,11.20
2008,06,17,02,01,11.20
2008,06,17,02,02,11.10
2008,06,17,02,03,11.10
2008,06,17,02,04,11.00
2008,06,17,02,05,11.00
2008,06,17,02,06,10.90
2008,06,17,02,07,10.90
2008,06,17,02,08,10.80
2008,06,17,02,09,10.80
2008,06,17,02,10,10.70
2008,06,17,02,11,10.70
2008,06,17,02,12,10.60
2008,06,17,02,13,10.60
2008,06,17,02,14,10.50
2008,06,17,02,15,10.40
2008,06,17,02,16,10.40
2008,06,17,02,17,10.30
2008,06,17,02,18,10.40
2008,06,17,02,19,10.40
2008,06,17,02,20,10.50
2008,06,17,02,21,10.50
2008,06,17,02,22,10.60
2008,06,17,02,23,10.60
2008,06,17,02,24,10.60
2008,06,17,02,25,10.60
2008,06,17,02,26,10.60
2008,06,17,02,27,10.60
2008,06,17,02,28,10.60
2008,06,17,02,29,10.60
2008,06,17,02,30,10.60
2008,06,17,02,31,10.60
2008,06,17,02,32,10.60
2008,06,17,02,33,10.60
2008,06,17,02,34,10.60
2008,06,17,02,35,10.60
2008,06,17,02,36,10.60
2008,06,17,02,37,10.60
2008,06,17,02,38,10.60
2008,06,17,02,39,10.60
2008,06,17,02,40,10.60
2008,06,17,02,41,10.60
2008,06,17,02,42,10.60
2008,06,17,02,43,10.60
2008,06,17,02,44,10.50
2008,06,17,02,45,10.40
2008,06,17,02,46,10.40
2008,06,17,02,47,10.40
2008,06,17,02,48,10.40
2008,06,17,02,49,10.40
2008,06,17,02,50,10.30
2008,06,17,02,51,10.30
2008,06,17,02,52,10.30
2008,06,17,02,53,10.30
2008,06,17,02,54,10.20
2008,06,17,02,55,10.20
2008,06,17,02,56,10.20
2008,06,17,02,57,10.20
2008,06,17,02,58,10.10
2008,06,17,02,59,10.10
2008,06,17,03,00,10.10
2008,06,17,03,01,10.10
2008,06,17,03,02,10.00
2008,06,17,03,03,9.90
2008,06,17,03,04,9.90
2008,06,17,03,05,9.90
2008,06,17,03,06,9.80
2008,06,17,03,07,9.70
2008,06,17,03,08,9.70
2008,06,17,03,09,9.60
2008,06,17,03,10,9.50
2008,06,17,03,11,9.40
2008,06,17,03,12,9.40
2008,06,17,03,13,9.30
2008,06,17,03,14,9.30
2008,06,17,03,15,9.20
2008,06,17,03,16,9.20
2008,06,17,03,17,9.20
2008,06,17,03,18,9.20
2008,06,17,03,19,9.20
2008,06,17,03,20,9.20
2008,06,17,03,21,9.10
2008,06,17,03,22,9.10
2008,06,17,03,23,9.10
2008,06,17,03,24,9.00
2008,06,17,03,25,9.00
2008,06,17,03,26,9.00
2008,06,17,03,27,9.00
2008,06,17,03,28,9.00
2008,06,17,03,29,9.00
2008,06,17,03,30,9.00
2008,06,17,03,31,8.90
2008,06,17,03,32,8.90
2008,06,17,03,33,8.90
2008,06,17,03,34,8.90
2008,06,17,03,35,8.90
2008,06,17,03,36,8.80
2008,06,17,03,37,8.80
2008,06,17,03,38,8.80
2008,06,17,03,39,8.80
2008,06,17,03,40,8.70
2008,06,17,03,41,8.70
2008,06,17,03,42,8.70
2008,06,17,03,43,8.70
2008,06,17,03,44,8.70
2008,06,17,03,45,8.70
2008,06,17,03,46,8.60
2008,06,17,03,47,8.60
2008,06,17,03,48,8.60
2008,06,17,03,49,8.50
2008,06,17,03,50,8.50
2008,06,17,03,51,8.40
2008,06,17,03,52,8.40
2008,06,17,03,53,8.50
2008,06,17,03,54,8.50
2008,06,17,03,55,8.50
2008,06,17,03,56,8.50
2008,06,17,03,57,8.50
2008,06,17,03,58,8.50
2008,06,17,03,59,8.50
2008,06,17,04,00,8.50
2008,06,17,04,01,8.60
2008,06,17,04,02,8.60
2008,06,17,04,03,8.60
2008,06,17,04,04,8.60
2008,06,17,04,05,8.60
2008,06,17,04,06,8.60
2008,06,17,04,07,8.60
2008,06,17,04,08,8.60
2008,06,17,04,09,8.60
2008,06,17,04,10,8.60
2008,06,17,04,11,8.60
2008,06,17,04,12,8.60
2008,06,17,04,13,8.60
2008,06,17,04,14,8.60
2008,06,17,04,15,8.50
2008,06,17,04,16,8.50
2008,06,17,04,17,8.50
2008,06,17,04,18,8.50
2008,06,17,04,19,8.50
2008,06,17,04,20,8.40
2008,06,17,04,21,8.40
2008,06,17,04,22,8.40
2008,06,17,04,23,8.40
2008,06,17,04,24,8.40
2008,06,17,04,25,8.30
2008,06,17,04,26,8.30
2008,06,17,04,27,8.30
2008,06,17,04,28,8.20
2008,06,17,04,29,8.20
2008,06,17,04,30,8.20
2008,06,17,04,31,8.20
2008,06,17,04,32,8.20
2008,06,17,04,33,8.20
2008,06,17,04,34,8.20
2008,06,17,04,35,8.10
2008,06,17,04,36,8.10
2008,06,17,04,37,8.10
2008,06,17,04,38,8.10
2008,06,17,04,39,8.10
2008,06,17,04,40,8.10
2008,06,17,04,41,8.00
2008,06,17,04,42,8.00
2008,06,17,04,43,8.00
2008,06,17,04,44,8.00
2008,06,17,04,45,8.00
2008,06,17,04,46,8.00
2008,06,17,04,47,8.00
2008,06,17,04,48,8.00
2008,06,17,04,49,8.10
2008,06,17,04,50,8.10
2008,06,17,04,51,8.10
2008,06,17,04,52,8.10
2008,06,17,04,53,8.10
2008,06,17,04,54,8.10
2008,06,17,04,55,8.10
2008,06,17,04,56,8.10
2008,06,17,04,57,8.10
2008,06,17,04,58,8.10
2008,06,17,04,59,8.10
2008,06,17,05,00,8.10
2008,06,17,05,01,8.10
2008,06,17,05,02,8.10
2008,06,17,05,03,8.20
2008,06,17,05,04,8.20
2008,06,17,05,05,8.20
2008,06,17,05,06,8.20
2008,06,17,05,07,8.20
2008,06,17,05,08,8.20
2008,06,17,05,09,8.30
2008,06,17,05,10,8.30
2008,06,17,05,11,8.30
2008,06,17,05,12,8.30
2008,06,17,05,13,8.30
2008,06,17,05,14,8.30
2008,06,17,05,15,8.30
2008,06,17,05,16,8.40
2008,06,17,05,17,8.40
2008,06,17,05,18,8.40
2008,06,17,05,19,8.40
2008,06,17,05,20,8.40
2008,06,17,05,21,8.50
2008,06,17,05,22,8.50
2008,06,17,05,23,8.60
2008,06,17,05,24,8.60
2008,06,17,05,25,8.60
2008,06,17,05,26,8.70
2008,06,17,05,27,8.70
2008,06,17,05,28,8.70
2008,06,17,05,29,8.70
2008,06,17,05,30,8.80
2008,06,17,05,31,8.80
2008,06,17,05,32,8.80
2008,06,17,05,33,8.80
2008,06,17,05,34,8.90
2008,06,17,05,35,8.90
2008,06,17,05,36,8.90
2008,06,17,05,37,8.90
2008,06,17,05,38,8.90
2008,06,17,05,39,8.90
2008,06,17,05,40,8.90
2008,06,17,05,41,8.90
2008,06,17,05,42,8.90
2008,06,17,05,43,8.90
2008,06,17,05,44,8.90
2008,06,17,05,45,8.90
2008,06,17,05,46,9.00
2008,06,17,05,47,9.00
2008,06,17,05,48,9.00
2008,06,17,05,49,9.10
2008,06,17,05,50,9.10
2008,06,17,05,51,9.10
2008,06,17,05,52,9.10
2008,06,17,05,53,9.10
2008,06,17,05,54,9.10
2008,06,17,05,55,9.10
2008,06,17,05,56,9.10
2008,06,17,05,57,9.10
2008,06,17,05,58,9.20
2008,06,17,05,59,9.10
2008,06,17,06,00,9.10
2008,06,17,06,01,9.10
2008,06,17,06,02,9.10
2008,06,17,06,03,9.20
2008,06,17,06,04,9.20
2008,06,17,06,05,9.20
2008,06,17,06,06,9.20
2008,06,17,06,07,9.20
2008,06,17,06,08,9.20
2008,06,17,06,09,9.20
2008,06,17,06,10,9.20
2008,06,17,06,11,9.20
2008,06,17,06,12,9.20
2008,06,17,06,13,9.20
2008,06,17,06,14,9.30
2008,06,17,06,15,9.30
2008,06,17,06,16,9.30
2008,06,17,06,17,9.30
2008,06,17,06,18,9.30
2008,06,17,06,19,9.30
2008,06,17,06,20,9.30
2008,06,17,06,21,9.30
2008,06,17,06,22,9.30
2008,06,17,06,23,9.40
2008,06,17,06,24,9.40
2008,06,17,06,25,9.40
2008,06,17,06,26,9.50
2008,06,17,06,27,9.50
2008,06,17,06,28,9.60
2008,06,17,06,29,9.60
2008,06,17,06,30,9.60
2008,06,17,06,31,9.70
2008,06,17,06,32,9.70
2008,06,17,06,33,9.70
2008,06,17,06,34,9.80
2008,06,17,06,35,9.80
2008,06,17,06,36,9.90
2008,06,17,06,37,9.90
2008,06,17,06,38,9.90
2008,06,17,06,39,10.00
2008,06,17,06,40,10.10
2008,06,17,06,41,10.10
2008,06,17,06,42,10.20
2008,06,17,06,43,10.20
2008,06,17,06,44,10.20
2008,06,17,06,45,10.30
2008,06,17,06,46,10.30
2008,06,17,06,47,10.40
2008,06,17,06,48,10.40
2008,06,17,06,49,10.50
2008,06,17,06,50,10.50
2008,06,17,06,51,10.60
2008,06,17,06,52,10.60
2008,06,17,06,53,10.70
2008,06,17,06,54,10.70
2008,06,17,06,55,10.80
2008,06,17,06,56,10.80
2008,06,17,06,57,10.80
2008,06,17,06,58,10.90
2008,06,17,06,59,10.90
2008,06,17,07,00,10.90
2008,06,17,07,01,11.00
2008,06,17,07,02,11.00
2008,06,17,07,03,11.10
2008,06,17,07,04,11.10
2008,06,17,07,05,11.10
2008,06,17,07,06,11.20
2008,06,17,07,07,11.20
2008,06,17,07,08,11.20
2008,06,17,07,09,11.20
2008,06,17,07,10,11.30
2008,06,17,07,11,11.30
2008,06,17,07,12,11.30
2008,06,17,07,13,11.30
2008,06,17,07,14,11.40
2008,06,17,07,15,11.40
2008,06,17,07,16,11.40
2008,06,17,07,17,11.50
2008,06,17,07,18,11.50
2008,06,17,07,19,11.60
2008,06,17,07,20,11.60
2008,06,17,07,21,11.60
2008,06,17,07,22,11.60
2008,06,17,07,23,11.60
2008,06,17,07,24,11.60
2008,06,17,07,25,11.70
2008,06,17,07,26,11.70
2008,06,17,07,27,11.70
2008,06,17,07,28,11.70
2008,06,17,07,29,11.80
2008,06,17,07,30,11.80
2008,06,17,07,31,11.90
2008,06,17,07,32,11.90
2008,06,17,07,33,11.90
2008,06,17,07,34,12.00
2008,06,17,07,35,12.10
2008,06,17,07,36,12.20
2008,06,17,07,37,12.20
2008,06,17,07,38,12.30
2008,06,17,07,39,12.30
2008,06,17,07,40,12.30
2008,06,17,07,41,12.30
2008,06,17,07,42,12.30
2008,06,17,07,43,12.30
2008,06,17,07,44,12.30
2008,06,17,07,45,12.30
2008,06,17,07,46,12.30
2008,06,17,07,47,12.30
2008,06,17,07,48,12.40
2008,06,17,07,49,12.40
2008,06,17,07,50,12.40
2008,06,17,07,51,12.40
2008,06,17,07,52,12.50
2008,06,17,07,53,12.50
2008,06,17,07,54,12.60
2008,06,17,07,55,12.60
2008,06,17,07,56,12.60
2008,06,17,07,57,12.50
2008,06,17,07,58,12.50
2008,06,17,07,59,12.40
2008,06,17,08,00,12.40
2008,06,17,08,01,12.40
2008,06,17,08,02,12.40
2008,06,17,08,03,12.40
2008,06,17,08,04,12.40
2008,06,17,08,05,12.40
2008,06,17,08,06,12.30
2008,06,17,08,07,12.30
2008,06,17,08,08,12.30
2008,06,17,08,09,12.30
2008,06,17,08,10,12.30
2008,06,17,08,11,12.30
2008,06,17,08,12,12.30
2008,06,17,08,13,12.40
2008,06,17,08,14,12.40
2008,06,17,08,15,12.40
2008,06,17,08,16,12.40
2008,06,17,08,17,12.40
2008,06,17,08,18,12.30
2008,06,17,08,19,12.30
2008,06,17,08,20,12.30
2008,06,17,08,21,12.20
2008,06,17,08,22,12.20
2008,06,17,08,23,12.10
2008,06,17,08,24,12.10
2008,06,17,08,25,12.00
2008,06,17,08,26,12.00
2008,06,17,08,27,12.00
2008,06,17,08,28,11.90
2008,06,17,08,29,11.90
2008,06,17,08,30,11.90
2008,06,17,08,31,11.90
2008,06,17,08,32,12.00
2008,06,17,08,33,12.00
2008,06,17,08,34,12.00
2008,06,17,08,35,12.00
2008,06,17,08,36,11.90
2008,06,17,08,37,11.90
2008,06,17,08,38,11.90
2008,06,17,08,39,11.90
2008,06,17,08,40,11.90
2008,06,17,08,41,11.90
2008,06,17,08,42,11.90
2008,06,17,08,43,11.90
2008,06,17,08,44,11.90
2008,06,17,08,45,11.90
2008,06,17,08,46,11.90
2008,06,17,08,47,12.00
2008,06,17,08,48,12.00
2008,06,17,08,49,12.00
2008,06,17,08,50,11.90
2008,06,17,08,51,11.90
2008,06,17,08,52,11.90
2008,06,17,08,53,11.90
2008,06,17,08,54,11.90
2008,06,17,08,55,11.90
2008,06,17,08,56,11.90
2008,06,17,08,57,11.90
2008,06,17,08,58,11.90
2008,06,17,08,59,11.90
2008,06,17,09,00,11.90
2008,06,17,09,01,11.90
2008,06,17,09,02,11.90
2008,06,17,09,03,11.90
2008,06,17,09,04,12.00
2008,06,17,09,05,12.00
2008,06,17,09,06,12.00
2008,06,17,09,07,12.10
2008,06,17,09,08,12.10
2008,06,17,09,09,12.10
2008,06,17,09,10,12.10
2008,06,17,09,11,12.10
2008,06,17,09,12,12.10
2008,06,17,09,13,12.10
2008,06,17,09,14,12.10
2008,06,17,09,15,12.20
2008,06,17,09,16,12.20
2008,06,17,09,17,12.30
2008,06,17,09,18,12.30
2008,06,17,09,19,12.30
2008,06,17,09,20,12.30
2008,06,17,09,21,12.30
2008,06,17,09,22,12.30
2008,06,17,09,23,12.40
2008,06,17,09,24,12.40
2008,06,17,09,25,12.40
2008,06,17,09,26,12.40
2008,06,17,09,27,12.40
2008,06,17,09,28,12.40
2008,06,17,09,29,12.40
2008,06,17,09,30,12.40
2008,06,17,09,31,12.40
2008,06,17,09,32,12.40
2008,06,17,09,33,12.40
2008,06,17,09,34,12.40
2008,06,17,09,35,12.50
2008,06,17,09,36,12.50
2008,06,17,09,37,12.50
2008,06,17,09,38,12.50
2008,06,17,09,39,12.50
2008,06,17,09,40,12.60
2008,06,17,09,41,12.60
2008,06,17,09,42,12.60
2008,06,17,09,43,12.60
2008,06,17,09,44,12.60
2008,06,17,09,45,12.60
2008,06,17,09,46,12.60
2008,06,17,09,47,12.60
2008,06,17,09,48,12.60
2008,06,17,09,49,12.60
2008,06,17,09,50,12.60
2008,06,17,09,51,12.60
2008,06,17,09,52,12.60
2008,06,17,09,53,12.60
2008,06,17,09,54,12.60
2008,06,17,09,55,12.60
2008,06,17,09,56,12.70
2008,06,17,09,57,12.70
2008,06,17,09,58,12.70
2008,06,17,09,59,12.70
2008,06,17,10,00,12.80
2008,06,17,10,01,12.80
2008,06,17,10,02,12.70
2008,06,17,10,03,12.70
2008,06,17,10,04,12.70
2008,06,17,10,05,12.80
2008,06,17,10,06,12.80
2008,06,17,10,07,12.80
2008,06,17,10,08,12.80
2008,06,17,10,09,12.80
2008,06,17,10,10,12.80
2008,06,17,10,11,12.90
2008,06,17,10,12,13.00
2008,06,17,10,13,13.10
2008,06,17,10,14,13.10
2008,06,17,10,15,13.20
2008,06,17,10,16,13.20
2008,06,17,10,17,13.20
2008,06,17,10,18,13.20
2008,06,17,10,19,13.20
2008,06,17,10,20,13.20
2008,06,17,10,21,13.20
2008,06,17,10,22,13.10
2008,06,17,10,23,13.20
2008,06,17,10,24,13.20
2008,06,17,10,25,13.20
2008,06,17,10,26,13.30
2008,06,17,10,27,13.40
2008,06,17,10,28,13.40
2008,06,17,10,29,13.40
2008,06,17,10,30,13.40
2008,06,17,10,31,13.50
2008,06,17,10,32,13.60
2008,06,17,10,33,13.80
2008,06,17,10,34,13.80
2008,06,17,10,35,13.80
2008,06,17,10,36,13.70
2008,06,17,10,37,13.60
2008,06,17,10,38,13.60
2008,06,17,10,39,13.60
2008,06,17,10,40,13.60
2008,06,17,10,41,13.60
2008,06,17,10,42,13.80
2008,06,17,10,43,13.90
2008,06,17,10,44,14.00
2008,06,17,10,45,14.10
2008,06,17,10,46,14.20
2008,06,17,10,47,14.20
2008,06,17,10,48,14.30
2008,06,17,10,49,14.50
2008,06,17,10,50,14.70
2008,06,17,10,51,14.90
2008,06,17,10,52,15.00
2008,06,17,10,53,15.00
2008,06,17,10,54,15.00
2008,06,17,10,55,15.00
2008,06,17,10,56,14.90
2008,06,17,10,57,14.80
2008,06,17,10,58,14.70
2008,06,17,10,59,14.70
2008,06,17,11,00,14.80
2008,06,17,11,01,14.80
2008,06,17,11,02,14.80
2008,06,17,11,03,14.80
2008,06,17,11,04,15.00
2008,06,17,11,05,15.00
2008,06,17,11,06,15.00
2008,06,17,11,07,15.00
2008,06,17,11,08,15.00
2008,06,17,11,09,15.00
2008,06,17,11,10,15.00
2008,06,17,11,11,15.00
2008,06,17,11,12,15.00
2008,06,17,11,13,15.00
2008,06,17,11,14,15.00
2008,06,17,11,15,15.00
2008,06,17,11,16,15.00
2008,06,17,11,17,15.00
2008,06,17,11,18,14.90
2008,06,17,11,19,15.00
2008,06,17,11,20,15.00
2008,06,17,11,21,15.00
2008,06,17,11,22,15.00
2008,06,17,11,23,15.00
2008,06,17,11,24,15.00
2008,06,17,11,25,15.00
2008,06,17,11,26,15.00
2008,06,17,11,27,15.00
2008,06,17,11,28,15.00
2008,06,17,11,29,15.00
2008,06,17,11,30,15.00
2008,06,17,11,31,15.00
2008,06,17,11,32,15.00
2008,06,17,11,33,15.00
2008,06,17,11,34,14.80
2008,06,17,11,35,14.80
2008,06,17,11,36,14.80
2008,06,17,11,37,14.80
2008,06,17,11,38,14.80
2008,06,17,11,39,14.90
2008,06,17,11,40,14.90
2008,06,17,11,41,15.00
2008,06,17,11,42,15.00
2008,06,17,11,43,15.00
2008,06,17,11,44,15.00
2008,06,17,11,45,15.20
2008,06,17,11,46,15.30
2008,06,17,11,47,15.40
2008,06,17,11,48,15.50
2008,06,17,11,49,15.30
2008,06,17,11,50,15.10
2008,06,17,11,51,15.00
2008,06,17,11,52,15.00
2008,06,17,11,53,15.00
2008,06,17,11,54,15.00
2008,06,17,11,55,15.10
2008,06,17,11,56,15.10
2008,06,17,11,57,15.20
2008,06,17,11,58,15.30
2008,06,17,11,59,15.40
2008,06,17,12,00,15.50
2008,06,17,12,01,15.60
2008,06,17,12,02,15.70
2008,06,17,12,03,15.90
2008,06,17,12,04,16.00
2008,06,17,12,05,16.20
2008,06,17,12,06,16.20
2008,06,17,12,07,16.10
2008,06,17,12,08,16.10
2008,06,17,12,09,16.00
2008,06,17,12,10,15.80
2008,06,17,12,11,15.70
2008,06,17,12,12,15.60
2008,06,17,12,13,15.60
2008,06,17,12,14,15.50
2008,06,17,12,15,15.50
2008,06,17,12,16,15.40
2008,06,17,12,17,15.30
2008,06,17,12,18,15.30
2008,06,17,12,19,15.20
2008,06,17,12,20,15.10
2008,06,17,12,21,15.00
2008,06,17,12,22,15.00
2008,06,17,12,23,15.00
2008,06,17,12,24,15.00
2008,06,17,12,25,15.20
2008,06,17,12,26,15.30
2008,06,17,12,27,15.50
2008,06,17,12,28,15.70
2008,06,17,12,29,15.80
2008,06,17,12,30,15.80
2008,06,17,12,31,15.80
2008,06,17,12,32,15.80
2008,06,17,12,33,15.60
2008,06,17,12,34,15.50
2008,06,17,12,35,15.50
2008,06,17,12,36,15.60
2008,06,17,12,37,15.70
2008,06,17,12,38,15.80
2008,06,17,12,39,15.90
2008,06,17,12,40,16.00
2008,06,17,12,41,16.10
2008,06,17,12,42,16.20
2008,06,17,12,43,16.20
2008,06,17,12,44,16.20
2008,06,17,12,45,16.20
2008,06,17,12,46,16.10
2008,06,17,12,47,16.00
2008,06,17,12,48,15.90
2008,06,17,12,49,15.90
2008,06,17,12,50,15.80
2008,06,17,12,51,15.70
2008,06,17,12,52,15.60
2008,06,17,12,53,15.60
2008,06,17,12,54,15.50
2008,06,17,12,55,15.40
2008,06,17,12,56,15.40
2008,06,17,12,57,15.20
2008,06,17,12,58,15.00
2008,06,17,12,59,15.00
2008,06,17,13,00,15.00
2008,06,17,13,01,15.00
2008,06,17,13,02,15.00
2008,06,17,13,03,14.90
2008,06,17,13,04,14.80
2008,06,17,13,05,14.80
2008,06,17,13,06,14.80
2008,06,17,13,07,14.90
2008,06,17,13,08,14.90
2008,06,17,13,09,15.00
2008,06,17,13,10,15.00
2008,06,17,13,11,14.90
2008,06,17,13,12,14.90
2008,06,17,13,13,15.00
2008,06,17,13,14,15.00
2008,06,17,13,15,14.90
2008,06,17,13,16,14.80
2008,06,17,13,17,14.70
2008,06,17,13,18,14.60
2008,06,17,13,19,14.60
2008,06,17,13,20,14.50
2008,06,17,13,21,14.40
2008,06,17,13,22,14.30
2008,06,17,13,23,14.30
2008,06,17,13,24,14.30
2008,06,17,13,25,14.40
2008,06,17,13,26,14.40
2008,06,17,13,27,14.40
2008,06,17,13,28,14.40
2008,06,17,13,29,14.40
2008,06,17,13,30,14.40
2008,06,17,13,31,14.40
2008,06,17,13,32,14.30
2008,06,17,13,33,14.20
2008,06,17,13,34,14.10
2008,06,17,13,35,14.00
2008,06,17,13,36,14.00
2008,06,17,13,37,13.90
2008,06,17,13,38,13.90
2008,06,17,13,39,13.90
2008,06,17,13,40,13.80
2008,06,17,13,41,13.80
2008,06,17,13,42,13.80
2008,06,17,13,43,13.80
2008,06,17,13,44,13.80
2008,06,17,13,45,13.80
2008,06,17,13,46,13.80
2008,06,17,13,47,13.80
2008,06,17,13,48,13.80
2008,06,17,13,49,13.80
2008,06,17,13,50,13.80
2008,06,17,13,51,13.80
2008,06,17,13,52,13.70
2008,06,17,13,53,13.80
2008,06,17,13,54,13.80
2008,06,17,13,55,13.80
2008,06,17,13,56,13.80
2008,06,17,13,57,13.80
2008,06,17,13,58,13.80
2008,06,17,13,59,13.80
2008,06,17,14,00,13.80
2008,06,17,14,01,13.90
2008,06,17,14,02,13.90
2008,06,17,14,03,13.90
2008,06,17,14,04,14.00
2008,06,17,14,05,14.10
2008,06,17,14,06,14.10
2008,06,17,14,07,14.10
2008,06,17,14,08,14.20
2008,06,17,14,09,14.20
2008,06,17,14,10,14.20
2008,06,17,14,11,14.20
2008,06,17,14,12,14.20
2008,06,17,14,13,14.20
2008,06,17,14,14,14.20
2008,06,17,14,15,14.20
2008,06,17,14,16,14.20
2008,06,17,14,17,14.20
2008,06,17,14,18,14.10
2008,06,17,14,19,14.10
2008,06,17,14,20,14.10
2008,06,17,14,21,14.20
2008,06,17,14,22,14.20
2008,06,17,14,23,14.20
2008,06,17,14,24,14.20
2008,06,17,14,25,14.20
2008,06,17,14,26,14.30
2008,06,17,14,27,14.30
2008,06,17,14,28,14.40
2008,06,17,14,29,14.50
2008,06,17,14,30,14.60
2008,06,17,14,31,14.70
2008,06,17,14,32,14.90
2008,06,17,14,33,15.00
2008,06,17,14,34,15.00
2008,06,17,14,35,15.00
2008,06,17,14,36,15.00
2008,06,17,14,37,15.10
2008,06,17,14,38,15.10
2008,06,17,14,39,15.20
2008,06,17,14,40,15.20
2008,06,17,14,41,15.20
2008,06,17,14,42,15.10
2008,06,17,14,43,15.10
2008,06,17,14,44,15.10
2008,06,17,14,45,15.20
2008,06,17,14,46,15.20
2008,06,17,14,47,15.20
2008,06,17,14,48,15.20
2008,06,17,14,49,15.20
2008,06,17,14,50,15.00
2008,06,17,14,51,15.00
2008,06,17,14,52,15.00
2008,06,17,14,53,15.00
2008,06,17,14,54,15.00
2008,06,17,14,55,15.00
2008,06,17,14,56,15.00
2008,06,17,14,57,15.00
2008,06,17,14,58,15.00
2008,06,17,14,59,15.00
2008,06,17,15,00,15.00
2008,06,17,15,01,15.00
2008,06,17,15,02,14.90
2008,06,17,15,03,14.90
2008,06,17,15,04,14.90
2008,06,17,15,05,14.80
2008,06,17,15,06,14.80
2008,06,17,15,07,14.80
2008,06,17,15,08,14.70
2008,06,17,15,09,14.70
2008,06,17,15,10,14.70
2008,06,17,15,11,14.70
2008,06,17,15,12,14.70
2008,06,17,15,13,14.60
2008,06,17,15,14,14.60
2008,06,17,15,15,14.60
2008,06,17,15,16,14.50
2008,06,17,15,17,14.50
2008,06,17,15,18,14.50
2008,06,17,15,19,14.40
2008,06,17,15,20,14.40
2008,06,17,15,21,14.40
2008,06,17,15,22,14.40
2008,06,17,15,23,14.40
2008,06,17,15,24,14.40
2008,06,17,15,25,14.40
2008,06,17,15,26,14.40
2008,06,17,15,27,14.50
2008,06,17,15,28,14.50
2008,06,17,15,29,14.60
2008,06,17,15,30,14.60
2008,06,17,15,31,14.70
2008,06,17,15,32,14.70
2008,06,17,15,33,14.70
2008,06,17,15,34,14.80
2008,06,17,15,35,14.80
2008,06,17,15,36,14.90
2008,06,17,15,37,15.00
2008,06,17,15,38,15.00
2008,06,17,15,39,15.00
2008,06,17,15,40,15.00
2008,06,17,15,41,15.00
2008,06,17,15,42,15.10
2008,06,17,15,43,15.10
2008,06,17,15,44,15.20
2008,06,17,15,45,15.30
2008,06,17,15,46,15.40
2008,06,17,15,47,15.50
2008,06,17,15,48,15.50
2008,06,17,15,49,15.60
2008,06,17,15,50,15.60
2008,06,17,15,51,15.70
2008,06,17,15,52,15.70
2008,06,17,15,53,15.70
2008,06,17,15,54,15.60
2008,06,17,15,55,15.50
2008,06,17,15,56,15.40
2008,06,17,15,57,15.40
2008,06,17,15,58,15.30
2008,06,17,15,59,15.30
2008,06,17,16,00,15.30
2008,06,17,16,01,15.40
2008,06,17,16,02,15.40
2008,06,17,16,03,15.40
2008,06,17,16,04,15.40
2008,06,17,16,05,15.30
2008,06,17,16,06,15.30
2008,06,17,16,07,15.30
2008,06,17,16,08,15.30
2008,06,17,16,09,15.30
2008,06,17,16,10,15.30
2008,06,17,16,11,15.30
2008,06,17,16,12,15.30
2008,06,17,16,13,15.30
2008,06,17,16,14,15.30
2008,06,17,16,15,15.30
2008,06,17,16,16,15.30
2008,06,17,16,17,15.30
2008,06,17,16,18,15.40
2008,06,17,16,19,15.40
2008,06,17,16,20,15.40
2008,06,17,16,21,15.40
2008,06,17,16,22,15.50
2008,06,17,16,23,15.60
2008,06,17,16,24,15.70
2008,06,17,16,25,15.80
2008,06,17,16,26,16.00
2008,06,17,16,27,16.10
2008,06,17,16,28,16.20
2008,06,17,16,29,16.30
2008,06,17,16,30,16.30
2008,06,17,16,31,16.30
2008,06,17,16,32,16.40
2008,06,17,16,33,16.40
2008,06,17,16,34,16.50
2008,06,17,16,35,16.60
2008,06,17,16,36,16.70
2008,06,17,16,37,16.70
2008,06,17,16,38,16.80
2008,06,17,16,39,16.80
2008,06,17,16,40,16.70
2008,06,17,16,41,16.70
2008,06,17,16,42,16.70
2008,06,17,16,43,16.70
2008,06,17,16,44,16.60
2008,06,17,16,45,16.60
2008,06,17,16,46,16.60
2008,06,17,16,47,16.50
2008,06,17,16,48,16.50
2008,06,17,16,49,16.40
2008,06,17,16,50,16.40
2008,06,17,16,51,16.40
2008,06,17,16,52,16.40
2008,06,17,16,53,16.40
2008,06,17,16,54,16.40
2008,06,17,16,55,16.40
2008,06,17,16,56,16.40
2008,06,17,16,57,16.40
2008,06,17,16,58,16.40
2008,06,17,16,59,16.40
2008,06,17,17,00,16.40
2008,06,17,17,01,16.40
2008,06,17,17,02,16.30
2008,06,17,17,03,16.30
2008,06,17,17,04,16.30
2008,06,17,17,05,16.30
2008,06,17,17,06,16.30
2008,06,17,17,07,16.30
2008,06,17,17,08,16.40
2008,06,17,17,09,16.50
2008,06,17,17,10,16.60
2008,06,17,17,11,16.60
2008,06,17,17,12,16.60
2008,06,17,17,13,16.60
2008,06,17,17,14,16.60
2008,06,17,17,15,16.60
2008,06,17,17,16,16.60
2008,06,17,17,17,16.50
2008,06,17,17,18,16.50
2008,06,17,17,19,16.50
2008,06,17,17,20,16.50
2008,06,17,17,21,16.50
2008,06,17,17,22,16.40
2008,06,17,17,23,16.40
2008,06,17,17,24,16.40
2008,06,17,17,25,16.30
2008,06,17,17,26,16.20
2008,06,17,17,27,16.20
2008,06,17,17,28,16.10